This is the latest recevied weather packets stored in our database for station/object K8RRT. If no packets are shown the sender has not sent any weather packets the latest 10 day(s).
| Time | Temp. | Humidity | Pressure | Rain* | Wind** | Luminosity | Snow |
|---|---|---|---|---|---|---|---|
| 1777685081 | 9.44° C | 71% | 1012.1 hPa | 0 mm | - | 0 W/m² | - |
| 1777684778 | 10° C | 70% | 1011.9 hPa | 0 mm | - | 0 W/m² | - |
| 1777684474 | 10° C | 69% | 1011.9 hPa | 0 mm | - | 0 W/m² | - |
| 1777684171 | 10° C | 69% | 1011.9 hPa | 0 mm | - | 0 W/m² | - |
| 1777683867 | 10° C | 68% | 1011.7 hPa | 0 mm | - | 0 W/m² | - |
| 1777683564 | 10.56° C | 67% | 1011.6 hPa | 0 mm | - | 0 W/m² | - |
| 1777683262 | 10.56° C | 67% | 1011.4 hPa | 0 mm | - | 0 W/m² | - |
| 1777682960 | 10.56° C | 66% | 1011.5 hPa | 0 mm | - | 0 W/m² | - |
| 1777682655 | 11.11° C | 66% | 1011.5 hPa | 0 mm | - | 0 W/m² | - |
| 1777682353 | 11.11° C | 67% | 1011.3 hPa | 0 mm | - | 0 W/m² | - |
| 1777682050 | 11.11° C | 68% | 1011.1 hPa | 0 mm | - | 0 W/m² | - |
| 1777681746 | 11.67° C | 68% | 1010.7 hPa | 0 mm | - | 0 W/m² | - |
| 1777681444 | 11.67° C | 69% | 1010.8 hPa | 0 mm | - | 0 W/m² | - |
| 1777681141 | 11.67° C | 69% | 1010.9 hPa | 0 mm | - | 0 W/m² | - |
| 1777680838 | 11.67° C | 69% | 1010.5 hPa | 0 mm | - | 2 W/m² | - |
| 1777680536 | 11.67° C | 70% | 1010.5 hPa | 0 mm | - | 6 W/m² | - |
| 1777680234 | 12.22° C | 69% | 1010.4 hPa | 0 mm | - | 7 W/m² | - |
| 1777679930 | 12.22° C | 68% | 1010.3 hPa | 0 mm | - | 11 W/m² | - |
| 1777679625 | 12.22° C | 67% | 1010.4 hPa | 0 mm | - | 29 W/m² | - |
| 1777679321 | 12.78° C | 67% | 1010.2 hPa | 0 mm | - | 19 W/m² | - |
| 1777679018 | 12.78° C | 65% | 1009.8 hPa | 0 mm | - | 19 W/m² | - |
| 1777678717 | 12.78° C | 64% | 1009.4 hPa | 0 mm | - | 47 W/m² | - |
| 1777678414 | 12.78° C | 63% | 1009.6 hPa | 0 mm | - | 35 W/m² | - |
| 1777678109 | 12.78° C | 63% | 1009.3 hPa | 0 mm | - | 29 W/m² | - |
| 1777677807 | 12.78° C | 64% | 1009.3 hPa | 0 mm | - | 44 W/m² | - |
* Rain latest hour (hover to see other rain measurements)
** Current wind speed in m/s (hover to see current wind gust speed)